STARLINK-1903, 46764

Orbit data source: Space-Track

STARLINK-1903, 46764 is a payload satellite owned by SpaceX/Seattle (US) in LEO that was launched on Sat, 24 Oct 2020 UTC via an FALCON 9 launch vehicle from the Air Force Eastern Test Range (AFETR). Payloads include a variety of satellites, spacecraft, and rockets equipped with specific instruments for various scientific and technological missions. These include communications satellites like Starlink; space stations such as the ISS; scientific satellites like the Hubble; Earth observation satellites from companies like Planet Labs, Umbra, and HawkEye 360; GPS; miniature CubeSats for education and research; and military/defense satellites.

Loading next visibility...
STARLINK-1903 details
Identifier
46764, 2020-074AB
Orbit
LEO
Last TLE update19 hours ago
Origin
Flag of USSpaceX/Seattle (US)
ManufacturerSpaceX/Seattle
MissionPartially operational Commercial Communications
Bus & MotorSTARLINK, Unknown motor
Mass260 kg wet, ~248 kg dry
Launch date (UTC)
2020-10-24 (4 years ago)
Launch vehicle
FALCON 9
Launch site
Air Force Eastern Test Range (AFETR)
Object type
Payload
Rocket body
Debris
Shape & HBRBox + 1 Pan, 8.86 m
Radar Cross Section13.562 m², Large (>1 m²)

Expand to show TLE details & history

TLE from 19 hours ago
0 STARLINK-1903
1 46764U 20074AB  24360.65345403  .00103157  00000-0  47193-2 0  9998
2 46764  53.0488 144.8672 0001885  28.4008 331.7089 15.19696228230345
Epoch: 2024-12-25T15:40Z
Definitive object data (Epoch: 2024-12-25T15:40:58.428Z)
Latitude-0.00002°
Longitude174.97962°
Altitude506.499 km
Speed7.613 km/s
True Right ascension09h 39m 28s
True Declination0° 00' 00"
Sunlit
Object was in full shadow at TLE epoch
Visualization TLE readout
Latitude4.69256°
Longitude174.87726°
Altitude505.488 km
Speed7.614 km/s
Apparent Right ascension08h 48m 00s
Apparent Declination-59° 55' 50"
Sunlit
Object is in full shadow
Visualization observer readout
Local Sidereal Time10:00:06
Azimuth189.085° SSW
Elevation-10.945°
Doppler factor1
Orbital elements
Apogee altitude508.329 km
Perigee altitude505.733 km
Semi-major axis6,885.168 km
Eccentricity0.0001885
Inclination53.0488°
RAAN144.8672°
Arg. of periapsis28.4008°
True anomaly331.69866°
Mean anomaly331.7089°
Eccentric anomaly331.70378°
Mean motion3.79902 °/min
BSTAR0.0047193
Orbital period94.76 mins
Loading maneuver chart data...

STARLINK-1903 Visibility forecast

Observer location: undefined°, undefined

Span
Click to sort rows by Start time (UTC) header in descending order
Start Az.
Max El. time (UTC)
Max El. Az.
Max El.
End time (UTC)
End Az.
7 mins2024-12-26 12:21:52.860Z221.017° SW2024-12-26 12:25:52.860Z100.975° ESE42.463°2024-12-26 12:28:52.860Z55.063° ENE
4 mins2024-12-26 14:02:52.860Z301.085° NW2024-12-26 14:04:52.860Z344.673° N20.453°2024-12-26 14:06:52.860Z21.173° NNE
6 mins2024-12-26 19:00:52.860Z318.963° NNW2024-12-26 19:03:52.860Z78.78° E40.234°2024-12-26 19:06:52.860Z119.351° SE
|